Flag for U.S.A. Weather past 2 weeks in Knoxville, Tennessee, U.S.A.

Now
57 °F

Passing clouds.


Feels Like: 57 °F
Forecast: 56 / 85 °F
Wind: No wind

Location: McGhee Tyson Airport

Current Time: May 24, 2015 at 7:37:10 AM

Latest Report: May 24, 2015 at 6:53 AM


Visibility: 10 mi

Pressure: 30.31 "Hg

Humidity: 87%

Dew point: 53 °F

Location of KnoxvilleLocation

Historic Weather in Knoxville — Graph

°F

Knoxville temperature yesterday

Maximum temperature yesterday: 81 °F (at 4:53 PM)
Minimum temperature yesterday: 50 °F (at 3:53 AM)
Average temperature yesterday: 65 °F

Past Weeks' High & Low Weather Summary

 TemperatureHumidityPressure
High90 °F (May 11, 2:53 PM)97% (May 19, 2:53 AM)30.39 "Hg (May 19, 2:53 AM)
Low48 °F (May 22, 4:53 AM)25% (May 13, 5:53 PM)29.81 "Hg (May 21, 3:53 AM)
Average71 °F64%30.13 "Hg
* Reported May 9 6:53 AM — May 24 5:53 AM, Knoxville, Weather by CustomWeather, © 2015

Note: Actual official high and low records may vary slightly from our data, if they occured in-between our weather recording intervals... More about our weather records

Advertising

Knoxville weather history for previous 24 hours

 ConditionsComfort  
Time TempWeatherWind HumidityBarometerVisibility
5:53 AM
Sun, May 24
58 °FPassing clouds.No wind87%30.28 "Hg10 mi
4:53 AM57 °FPassing clouds.No wind90%30.27 "Hg10 mi
3:53 AM59 °FPassing clouds.No wind87%30.25 "Hg10 mi
2:53 AM59 °FPassing clouds.3 mph87%30.25 "Hg10 mi
1:53 AM63 °FPassing clouds.No wind73%30.26 "Hg10 mi
12:53 AM65 °FPassing clouds.No wind73%30.27 "Hg10 mi
11:53 PM
Sat, May 23
68 °FPassing clouds.3 mph65%30.27 "Hg10 mi
10:53 PM69 °FPassing clouds.No wind61%30.27 "Hg10 mi
9:53 PM72 °FClear.3 mph53%30.25 "Hg10 mi
8:53 PM74 °FPassing clouds.5 mph50%30.25 "Hg10 mi
7:53 PM77 °FPassing clouds.5 mph44%30.26 "Hg10 mi
6:53 PM79 °FPartly sunny.6 mph39%30.26 "Hg10 mi
5:53 PM80 °FScattered clouds.8 mph39%30.27 "Hg10 mi
4:53 PM81 °FScattered clouds.3 mph37%30.28 "Hg10 mi
3:53 PM80 °FScattered clouds.No wind36%30.30 "Hg10 mi
2:53 PM78 °FPassing clouds.5 mph39%30.33 "Hg10 mi
12:53 PM75 °FScattered clouds.3 mph40%30.37 "Hg10 mi
11:53 AM72 °FScattered clouds.5 mph48%30.38 "Hg10 mi
10:53 AM66 °FBroken clouds.5 mph59%30.38 "Hg10 mi
9:53 AM61 °FBroken clouds.6 mph67%30.39 "Hg10 mi
8:53 AM56 °FBroken clouds.3 mph77%30.38 "Hg10 mi
7:53 AM53 °FScattered clouds.No wind80%30.36 "Hg10 mi
Weather by CustomWeather, © 2015

See weather overviewHow to use our weather pages